Flag for China Weather past 2 weeks in Shanghai, Shanghai Municipality, China

Now
41 °F

Clear.


Feels Like: 37 °F
Forecast: 41 / 51 °F
Wind: 6 mph from North

Location: Shanghai Hongqiao Airport

Current Time: Dec 25, 2014 at 9:38:59 PM

Latest Report: Dec 25, 2014 at 9:00 PM


Visibility: 10 mi

Pressure: 30.48 "Hg

Humidity: 61%

Dew point: 28 °F

Location of ShanghaiLocation

Historic Weather in Shanghai — Graph

°F

Shanghai temperature yesterday

Maximum temperature yesterday: 55 °F (at 12:30 PM)
Minimum temperature yesterday: 41 °F (at 10:00 PM)
Average temperature yesterday: 47 °F

Past Weeks' High & Low Weather Summary

 TemperatureHumidityPressure
High55 °F (Dec 24, 12:30 PM)93% (Dec 10, 8:30 PM)30.60 "Hg (Dec 10, 8:30 PM)
Low28 °F (Dec 18, 5:30 AM)17% (Dec 17, 12:00 PM)30.15 "Hg (Dec 23, 2:30 PM)
Average42 °F55%30.39 "Hg
* Reported Dec 10 8:00 PM — Dec 25 8:30 PM, Shanghai, Weather by CustomWeather, © 2014

Note: Actual official high and low records may vary slightly from our data, if they occured in-between our weather recording intervals... More about our weather records

Advertising

Shanghai weather history for previous 24 hours

 ConditionsComfort  
Time TempWeatherWind HumidityBarometerVisibility
8:30 PM
Dec 25
43 °FClear.8 mph57%30.45 "Hg10 mi
8:00 PM43 °FClear.10 mph57%30.45 "Hg10 mi
7:30 PM43 °FClear.10 mph57%30.45 "Hg10 mi
7:00 PM43 °FClear.10 mph57%30.45 "Hg10 mi
6:30 PM43 °FClear.10 mph57%30.45 "Hg10 mi
6:00 PM43 °FPassing clouds.10 mph57%30.45 "HgN/A
5:30 PM45 °FClear.13 mph53%30.42 "Hg10 mi
5:00 PM45 °FClear.10 mph49%30.39 "Hg10 mi
4:30 PM45 °FPassing clouds.13 mph49%30.39 "HgN/A
4:00 PM46 °FSunny.10 mph46%30.39 "Hg10 mi
3:30 PM46 °FPassing clouds.10 mph46%30.36 "HgN/A
3:00 PM48 °FSunny.10 mph46%30.36 "Hg10 mi
2:30 PM48 °FPassing clouds.13 mph46%30.36 "HgN/A
2:00 PM48 °FScattered clouds.8 mph50%30.39 "HgN/A
1:30 PM48 °FScattered clouds.8 mph50%30.39 "HgN/A
1:00 PM48 °FPassing clouds.6 mph46%30.39 "HgN/A
12:30 PM50 °FPassing clouds.8 mph47%30.39 "HgN/A
12:00 PM48 °FPassing clouds.8 mph50%30.42 "HgN/A
11:30 AM48 °FPassing clouds.6 mph54%30.42 "HgN/A
11:00 AM46 °FPassing clouds.8 mph53%30.45 "HgN/A
10:30 AM46 °FPassing clouds.10 mph57%30.45 "HgN/A
10:00 AM46 °FPassing clouds.13 mph53%30.48 "HgN/A
9:30 AM46 °FScattered clouds.13 mph57%30.45 "HgN/A
9:00 AM45 °FScattered clouds.10 mph66%30.45 "HgN/A
8:30 AM43 °FPassing clouds.8 mph71%30.45 "HgN/A
8:00 AM41 °FSunny.6 mph81%30.45 "Hg10 mi
7:30 AM37 °FSunny.6 mph87%30.45 "Hg10 mi
7:00 AM36 °FSunny.6 mph87%30.45 "Hg10 mi
6:30 AM36 °FClear.6 mph87%30.45 "Hg10 mi
6:00 AM36 °FClear.8 mph87%30.42 "Hg10 mi
5:30 AM36 °FClear.6 mph93%30.42 "Hg10 mi
5:00 AM37 °FClear.8 mph87%30.42 "Hg4 mi
4:30 AM36 °FFog.8 mph93%30.39 "Hg2 mi
4:00 AM36 °FFog.6 mph93%30.42 "Hg2 mi
3:30 AM36 °FFog.6 mph93%30.42 "Hg2 mi
3:00 AM36 °FFog.6 mph93%30.42 "Hg2 mi
2:30 AM37 °FFog.6 mph93%30.39 "Hg2 mi
2:00 AM37 °FFog.6 mph93%30.42 "Hg2 mi
1:30 AM37 °FFog.6 mph93%30.39 "Hg2 mi
1:00 AM39 °FFog.6 mph87%30.39 "Hg2 mi
12:30 AM39 °FFog.8 mph87%30.39 "Hg2 mi
12:00 AM41 °FFog.8 mph87%30.39 "Hg2 mi
11:30 PM
Dec 24
41 °FFog.8 mph87%30.39 "Hg2 mi
11:00 PM41 °FFog.8 mph81%30.42 "Hg2 mi
10:30 PM41 °FFog.8 mph81%30.42 "Hg2 mi
10:00 PM41 °FFog.8 mph76%30.42 "Hg2 mi
9:30 PM43 °FHaze.8 mph71%30.42 "Hg3 mi
9:00 PM43 °FHaze.8 mph66%30.42 "Hg3 mi
Weather by CustomWeather, © 2014

See weather overviewHow to use our weather pages